Location: Recife
(8.0585°S, 34.8848°W)
Time: 14:56:04
(UTC-03:00)

Tiros 1 despin weight - Pass Details

Date: 23 April 2026
Orbit: 555 x 591 km, 48.2° (Epoch: 14 May)

Event Time Altitude Azimuth Distance (km) Brightness Sun altitude
Rises 10:02:38 0° 239° (WSW) 2,739 ? 62.1°
Reaches altitude 10° 10:05:11 10° 252° (WSW) 1,837 ? 62.5°
Maximum altitude 10:08:40 25° 308° (NW) 1,129 ? 63.1°
Drops below altitude 10° 10:12:07 10° 5° (N) 1,821 ? 63.6°
Sets 10:14:38 0° 18° (NNE) 2,710 ? 64.0°
